Date,TemperatureHighF,TemperatureAvgF,TemperatureLowF,DewpointHighF,DewpointAvgF,DewpointLowF,HumidityHigh,HumidityAvg,HumidityLow,PressureMaxIn,PressureMinIn,WindSpeedMaxMPH,WindSpeedAvgMPH,GustSpeedMaxMPH,PrecipitationSumIn
2013-2-1,67,53,44,44,38,30,78,58,38,30.32,30.22,3,0,4,0.00
2013-2-2,67,53,46,46,39,34,76,61,37,30.36,30.28,3,0,5,0.00
2013-2-3,63,50,40,44,36,27,83,60,38,30.29,30.19,4,0,6,0.00
2013-2-4,62,51,42,45,37,27,82,60,42,30.25,30.13,7,1,7,0.00
2013-2-5,54,46,39,46,40,34,95,81,62,30.20,30.09,4,1,8,0.00
2013-2-6,57,44,36,39,34,28,94,67,36,30.25,30.18,4,1,8,0.00
2013-2-7,46,40,36,40,37,33,93,88,77,30.24,30.07,6,1,8,0.22
2013-2-8,51,39,30,38,30,23,97,74,42,30.07,29.99,4,0,10,0.05
2013-2-9,50,39,31,34,28,23,82,65,47,30.20,30.04,6,0,8,0.00
2013-2-10,56,42,31,38,30,22,84,63,41,30.22,30.10,5,0,8,0.00
2013-2-11,56,44,34,33,28,21,71,54,35,30.34,30.18,7,1,10,0.00
2013-2-12,56,44,35,38,33,26,83,65,45,30.46,30.34,4,0,6,0.00
2013-2-13,58,46,34,40,36,31,88,71,49,30.42,30.31,5,1,7,0.00
2013-2-14,66,52,41,45,38,31,76,60,43,30.34,30.26,5,1,8,0.00
2013-2-15,70,54,44,42,36,28,75,53,32,30.36,30.31,3,0,4,0.00
2013-2-16,66,54,47,41,35,25,74,50,33,30.34,30.11,3,0,5,0.00
2013-2-17,64,51,42,42,37,30,79,60,40,30.11,30.02,4,0,5,0.00
2013-2-18,57,46,39,43,38,33,86,73,55,30.07,29.95,8,2,11,0.00
2013-2-19,39,35,30,37,33,29,97,93,85,30.00,29.82,10,1,13,0.38
2013-2-20,55,40,28,43,32,27,98,77,44,30.12,29.90,4,0,6,0.04
2013-2-21,56,43,34,38,33,29,93,69,44,30.24,30.12,3,0,7,0.00
2013-2-22,56,45,34,37,33,27,77,64,45,30.32,30.24,3,0,6,0.00
2013-2-23,55,45,38,41,32,18,94,62,36,30.28,30.20,6,1,13,0.00
2013-2-24,58,45,33,31,26,19,63,49,29,30.34,30.25,7,1,8,0.00
2013-2-25,59,46,36,36,31,27,71,56,38,30.36,30.25,4,1,9,0.00
2013-2-26,66,50,38,31,23,12,70,38,17,30.29,30.19,6,1,9,0.00
2013-2-27,64,52,41,34,26,16,54,37,25,30.44,30.29,7,1,7,0.00
2013-2-28,68,54,44,41,35,28,71,50,33,30.51,30.43,6,0,9,0.00